Weather History for PHLI - March, 2012

Change the Weather History Date:

Saturday, March 10, 2012

  Actual Average Record
Temperature  
Mean Temperature 75 °F 72 °F  
Max Temperature 78 °F 78 °F 85 °F (1983)
Min Temperature 71 °F 67 °F 57 °F (1962)
Degree Days  
Heating Degree Days 0 0  
Month to date heating degree days 0 0  
Since 1 July heating degree days 0 0  
Cooling Degree Days 10 7  
Month to date cooling degree days 66 70  
Year to date cooling degree days 566 465  
Growing Degree Days 24 (Base 50)    
Moisture  
Dew Point 66 °F    
Average Humidity 77    
Maximum Humidity 84    
Minimum Humidity 69    
Precipitation  
Precipitation 0.04 in 0.14 in 0.72 in (2006)
Month to date precipitation 17.54 1.46  
Year to date precipitation 30.75 8.37  
Snow  
Snow 0.00 in - - ()
Month to date snowfall 0.0  
Since 1 July snowfall 0.0  
Snow Depth 0.00 in    
Sea Level Pressure  
Sea Level Pressure 30.12 in    
Wind  
Wind Speed 23 mph (ENE)    
Max Wind Speed 29 mph    
Max Gust Speed 37 mph    
Visibility 9 miles    
Events Rain    
T = Trace of Precipitation, MM = Missing Value Source: NWS Daily Summary

Daily Weather History Graph

Daily Weather History Graph

Search for Another Location

Airport or City:

Trip Planner

Search our weather history database for the weather conditions in past years. The results will help you decide how hot, cold, wet, or windy it might be!

Date:

Astronomy

Mar. 10, 2012 Rise Set
Actual Time 6:49 AM HST 6:45 PM HST
Civil Twilight 6:27 AM HST 7:07 PM HST
Nautical Twilight 6:01 AM HST 7:33 PM HST
Astronomical Twilight 5:35 AM HST 7:59 PM HST
Moon 9:37 PM HST (3/10) 8:21 AM HST (3/10)
Length of Visible Light 12h 39m
Length of Day
11h 55m
Waning Gibbous, 91% of the Moon is Illuminated
Mar 10
Waning Gibbous
Mar 14
Last Quarter
Mar 22
New
Mar 30
First Quarter
Apr 6
Full

Hourly Weather History & Observations

Time (HST) Temp. Dew Point Humidity Pressure Visibility Wind Dir Wind Speed Gust Speed Precip Events Conditions
12:53 AM 73.4 °F 66.2 °F 78% 30.09 in 9.0 mi East 25.3 mph 32.2 mph N/A   Mostly Cloudy
1:53 AM 73.0 °F 66.9 °F 81% 30.08 in 10.0 mi ENE 25.3 mph 29.9 mph N/A   Overcast
2:53 AM 73.4 °F 66.2 °F 78% 30.07 in 9.0 mi ENE 21.9 mph - N/A   Overcast
3:53 AM 73.0 °F 66.9 °F 81% 30.06 in 10.0 mi ENE 21.9 mph 28.8 mph N/A   Overcast
4:43 AM 73.4 °F 66.2 °F 78% 30.06 in 10.0 mi ENE 25.3 mph 31.1 mph N/A   Overcast
4:53 AM 73.0 °F 66.0 °F 79% 30.06 in 10.0 mi ENE 24.2 mph 31.1 mph N/A   Overcast
5:53 AM 73.0 °F 66.9 °F 81% 30.07 in 9.0 mi East 25.3 mph 31.1 mph N/A   Overcast
6:53 AM 73.0 °F 66.0 °F 79% 30.09 in 9.0 mi East 23.0 mph 32.2 mph N/A   Overcast
7:18 AM 73.4 °F 66.2 °F 78% 30.10 in 8.0 mi ENE 24.2 mph 29.9 mph N/A   Overcast
7:53 AM 73.9 °F 64.9 °F 73% 30.12 in 10.0 mi ENE 23.0 mph 34.5 mph N/A   Overcast
8:00 AM 73.4 °F 64.4 °F 73% 30.12 in 10.0 mi East 24.2 mph - N/A   Mostly Cloudy
8:53 AM 75.0 °F 66.0 °F 73% 30.14 in 10.0 mi ENE 21.9 mph - N/A   Scattered Clouds
9:53 AM 75.9 °F 66.0 °F 71% 30.14 in 9.0 mi ENE 20.7 mph 28.8 mph N/A   Scattered Clouds
10:27 AM 75.2 °F 66.2 °F 73% 30.16 in 9.0 mi East 23.0 mph - N/A   Mostly Cloudy
10:53 AM 77.0 °F 66.0 °F 69% 30.15 in 9.0 mi East 21.9 mph 28.8 mph N/A   Mostly Cloudy
11:53 AM 75.9 °F 66.0 °F 71% 30.14 in 9.0 mi ENE 18.4 mph - N/A   Overcast
12:53 PM 75.9 °F 64.0 °F 67% 30.12 in 10.0 mi ENE 23.0 mph - 0.00 in   Overcast
1:53 PM 75.0 °F 66.0 °F 73% 30.12 in 9.0 mi ENE 23.0 mph 29.9 mph 0.00 in   Overcast
2:15 PM 71.6 °F 64.4 °F 78% 30.12 in 2.0 mi ENE 23.0 mph 34.5 mph 0.01 in Rain Heavy Rain
2:22 PM 71.6 °F 68.0 °F 88% 30.12 in 8.0 mi ENE 21.9 mph 27.6 mph 0.04 in Rain Light Rain
2:53 PM 73.9 °F 66.9 °F 79% 30.12 in 8.0 mi East 24.2 mph 29.9 mph 0.04 in   Overcast
3:53 PM 73.9 °F 64.9 °F 73% 30.10 in 9.0 mi ENE 24.2 mph 31.1 mph 0.00 in   Overcast
4:53 PM 73.9 °F 64.9 °F 73% 30.10 in 9.0 mi ENE 24.2 mph 29.9 mph N/A   Overcast
5:53 PM 73.0 °F 64.9 °F 76% 30.11 in 9.0 mi ENE 23.0 mph 28.8 mph N/A   Overcast
6:53 PM 73.0 °F 64.9 °F 76% 30.13 in 10.0 mi ENE 23.0 mph 29.9 mph N/A   Overcast
7:53 PM 73.0 °F 64.9 °F 76% 30.14 in 10.0 mi ENE 23.0 mph 29.9 mph N/A   Overcast
8:53 PM 73.0 °F 64.9 °F 76% 30.17 in 10.0 mi ENE 23.0 mph 29.9 mph N/A   Overcast
9:53 PM 73.9 °F 64.9 °F 73% 30.18 in 10.0 mi ENE 21.9 mph - N/A   Overcast
10:53 PM 71.1 °F 68.0 °F 90% 30.18 in 9.0 mi ENE 17.3 mph - 0.01 in Rain Light Rain
11:53 PM 70.0 °F 66.0 °F 87% 30.17 in 8.0 mi ENE 20.7 mph 31.1 mph 0.00 in Rain Light Rain